Location: The Rolnick Observatory
(41.1711°N, 73.3275°W)
Time: 04:49:45
(UTC-04:00)

N. Korean satellite - Pass Details

Date: 22 February 2019
Orbit: 456 x 510 km, 97.2° (Epoch: 25 March)

Event Time Altitude Azimuth Distance (km) Brightness Sun altitude
Rises 05:03:20 0° 34° (NE) 2,494 10.7 -18.6°
Reaches altitude 10° 05:06:27 10° 65° (ENE) 1,605 10.2 -18.0°
Maximum altitude 05:07:57 12° 92° (E) 1,458 10.2 -17.8°
Drops below altitude 10° 05:09:27 10° 118° (ESE) 1,595 10.1 -17.5°
Sets 05:12:30 0° 149° (SSE) 2,459 10.6 -16.9°
